Weather History for PAWN - September, 2012

Change the Weather History Date:

Monday, September 10, 2012

  Actual Average Record
Temperature  
Mean Temperature 35 °F -  
Max Temperature 44 °F 46 °F 73 °F (2007)
Min Temperature 26 °F 31 °F 19 °F (2008)
Degree Days  
Heating Degree Days 30    
Moisture  
Dew Point 24 °F    
Average Humidity 67    
Maximum Humidity 86    
Minimum Humidity 39    
Precipitation  
Precipitation 0.00 in - - ()
Sea Level Pressure  
Sea Level Pressure 30.04 in    
Wind  
Wind Speed 5 mph (North)    
Max Wind Speed 8 mph    
Max Gust Speed -    
Visibility 10 miles    
Events      
Averages and records for this station are not official NWS values.
T = Trace of Precipitation, MM = Missing Value Source: NWS Daily Summary

Daily Weather History Graph

Daily Weather History Graph

Search for Another Location

Airport or City:

Trip Planner

Search our weather history database for the weather conditions in past years. The results will help you decide how hot, cold, wet, or windy it might be!

Date:

Astronomy

Sep. 10, 2012 Rise Set
Actual Time 7:54 AM AKDT 9:40 PM AKDT
Civil Twilight 6:56 AM AKDT 10:38 PM AKDT
Nautical Twilight 5:36 AM AKDT 11:56 PM AKDT
Astronomical Twilight 3:21 AM AKDT 2:25 AM AKDT
Moon No Moon Rise 8:19 PM AKDT (9/10)
Length of Visible Light 15h 41m
Length of Day
13h 45m
Waning Crescent, 29% of the Moon is Illuminated
Sep 10
Waning Crescent
Sep 15
New
Sep 22
First Quarter
Sep 29
Full
Oct 7
Last Quarter

Hourly Weather History & Observations

Time (AKDT) Temp. Windchill Dew Point Humidity Pressure Visibility Wind Dir Wind Speed Gust Speed Precip Events Conditions
12:16 AM 32.0 °F 25.6 °F 24.8 °F 75% 30.04 in 10.0 mi North 6.9 mph - N/A   Clear
12:36 AM 32.0 °F 25.6 °F 24.8 °F 75% 30.05 in 10.0 mi North 6.9 mph - N/A   Clear
12:56 AM 33.8 °F 27.7 °F 24.8 °F 70% 30.05 in 10.0 mi NNE 6.9 mph - N/A   Clear
1:16 AM 32.0 °F 24.8 °F 24.8 °F 75% 30.05 in 10.0 mi NNE 8.1 mph - N/A   Clear
1:36 AM 30.2 °F 24.3 °F 24.8 °F 80% 30.06 in 10.0 mi North 5.8 mph - N/A   Clear
1:56 AM 30.2 °F 23.4 °F 23.0 °F 75% 30.06 in 10.0 mi NNE 6.9 mph - N/A   Clear
2:16 AM 30.2 °F 22.6 °F 23.0 °F 75% 30.06 in 10.0 mi NNE 8.1 mph - N/A   Clear
2:36 AM 30.2 °F 23.4 °F 24.8 °F 80% 30.06 in 10.0 mi North 6.9 mph - N/A   Clear
2:56 AM 28.4 °F 20.4 °F 23.0 °F 80% 30.06 in 10.0 mi North 8.1 mph - N/A   Clear
3:16 AM 28.4 °F 21.2 °F 23.0 °F 80% 30.06 in 10.0 mi North 6.9 mph - N/A   Clear
3:36 AM 28.4 °F 21.2 °F 23.0 °F 80% 30.06 in 10.0 mi North 6.9 mph - N/A   Clear
3:56 AM 28.4 °F 20.4 °F 23.0 °F 80% 30.06 in 10.0 mi North 8.1 mph - N/A   Clear
4:16 AM 28.4 °F 20.4 °F 23.0 °F 80% 30.06 in 10.0 mi North 8.1 mph - N/A   Clear
4:36 AM 28.4 °F 22.2 °F 24.8 °F 86% 30.06 in 10.0 mi North 5.8 mph - N/A   Clear
4:56 AM 26.6 °F 18.2 °F 23.0 °F 86% 30.06 in 10.0 mi NNW 8.1 mph - N/A   Clear
5:16 AM 26.6 °F 18.2 °F 21.2 °F 80% 30.06 in 10.0 mi NNW 8.1 mph - N/A   Clear
5:36 AM 26.6 °F 19.1 °F 21.2 °F 80% 30.06 in 10.0 mi North 6.9 mph - N/A   Clear
5:56 AM 26.6 °F 19.1 °F 21.2 °F 80% 30.05 in 10.0 mi North 6.9 mph - N/A   Clear
6:16 AM 26.6 °F 19.1 °F 21.2 °F 80% 30.05 in 10.0 mi North 6.9 mph - N/A   Clear
6:36 AM 26.6 °F 19.1 °F 21.2 °F 80% 30.06 in 10.0 mi North 6.9 mph - N/A   Clear
6:56 AM 26.6 °F 19.1 °F 23.0 °F 86% 30.06 in 10.0 mi NNW 6.9 mph - N/A   Clear
7:16 AM 26.6 °F 20.0 °F 23.0 °F 86% 30.06 in 10.0 mi NNW 5.8 mph - N/A   Clear
7:36 AM 26.6 °F 19.1 °F 21.2 °F 80% 30.06 in 10.0 mi NNW 6.9 mph - N/A   Clear
7:56 AM 26.6 °F 19.1 °F 21.2 °F 80% 30.06 in 10.0 mi NNW 6.9 mph - N/A   Clear
8:16 AM 26.6 °F 19.1 °F 21.2 °F 80% 30.06 in 10.0 mi NNW 6.9 mph - N/A   Clear
8:36 AM 26.6 °F 20.0 °F 23.0 °F 86% 30.06 in 10.0 mi North 5.8 mph - N/A   Clear
8:56 AM 26.6 °F 19.1 °F 23.0 °F 86% 30.06 in 10.0 mi North 6.9 mph - N/A   Clear
9:16 AM 28.4 °F 22.2 °F 23.0 °F 80% 30.06 in 10.0 mi North 5.8 mph - N/A   Clear
9:36 AM 30.2 °F 24.3 °F 23.0 °F 75% 30.06 in 10.0 mi North 5.8 mph - N/A   Clear
9:56 AM 30.2 °F 22.6 °F 24.8 °F 80% 30.06 in 10.0 mi NNE 8.1 mph - N/A   Clear
10:16 AM 30.2 °F 23.4 °F 23.0 °F 75% 30.07 in 10.0 mi NNE 6.9 mph - N/A   Clear
10:36 AM 32.0 °F 27.5 °F 23.0 °F 69% 30.07 in 10.0 mi NNE 4.6 mph - N/A   Clear
10:56 AM 33.8 °F 27.7 °F 24.8 °F 70% 30.07 in 10.0 mi NNE 6.9 mph - N/A   Clear
11:16 AM 33.8 °F 28.6 °F 24.8 °F 70% 30.07 in 10.0 mi ENE 5.8 mph - N/A   Clear
11:36 AM 33.8 °F 30.8 °F 24.8 °F 70% 30.07 in 10.0 mi NE 3.5 mph - N/A   Clear
11:56 AM 35.6 °F 31.7 °F 24.8 °F 65% 30.07 in 10.0 mi ENE 4.6 mph - N/A   Clear
12:16 PM 35.6 °F 31.7 °F 24.8 °F 65% 30.07 in 10.0 mi ENE 4.6 mph - N/A   Clear
12:36 PM 37.4 °F 34.9 °F 24.8 °F 60% 30.07 in 10.0 mi East 3.5 mph - N/A   Clear
12:56 PM 37.4 °F - 24.8 °F 60% 30.07 in 10.0 mi Calm Calm - N/A   Clear
1:16 PM 39.2 °F - 24.8 °F 56% 30.06 in 10.0 mi Calm Calm - N/A   Clear
1:36 PM 39.2 °F - 24.8 °F 56% 30.06 in 10.0 mi Calm Calm - N/A   Clear
1:56 PM 39.2 °F - 24.8 °F 56% 30.06 in 10.0 mi Calm Calm - N/A   Clear
2:16 PM 42.8 °F - 24.8 °F 49% 30.05 in 10.0 mi Calm Calm - N/A   Clear
2:36 PM 42.8 °F - 24.8 °F 49% 30.05 in 10.0 mi Calm Calm - N/A   Clear
2:56 PM 42.8 °F - 24.8 °F 49% 30.05 in 10.0 mi Calm Calm - N/A   Clear
3:16 PM 42.8 °F - 24.8 °F 49% 30.05 in 10.0 mi Calm Calm - N/A   Clear
3:36 PM 42.8 °F - 24.8 °F 49% 30.04 in 10.0 mi Calm Calm - N/A   Clear
3:56 PM 42.8 °F - 24.8 °F 49% 30.04 in 10.0 mi Calm Calm - N/A   Clear
4:16 PM 44.6 °F - 24.8 °F 46% 30.04 in 10.0 mi Calm Calm - N/A   Clear
4:36 PM 44.6 °F - 23.0 °F 43% 30.03 in 10.0 mi Calm Calm - N/A   Clear
4:56 PM 44.6 °F - 23.0 °F 43% 30.03 in 10.0 mi Calm Calm - N/A   Clear
5:16 PM 44.6 °F - 24.8 °F 46% 30.03 in 10.0 mi Calm Calm - N/A   Clear
5:36 PM 44.6 °F - 23.0 °F 43% 30.02 in 10.0 mi Calm Calm - N/A   Clear
5:56 PM 44.6 °F 43.1 °F 23.0 °F 43% 30.02 in 10.0 mi NNE 3.5 mph - N/A   Clear
6:16 PM 44.6 °F 42.2 °F 21.2 °F 39% 30.02 in 10.0 mi North 4.6 mph - N/A   Clear
6:36 PM 44.6 °F - 23.0 °F 43% 30.02 in 10.0 mi Calm Calm - N/A   Clear
6:56 PM 44.6 °F - 21.2 °F 39% 30.01 in 10.0 mi Calm Calm - N/A   Clear
7:16 PM 44.6 °F - 23.0 °F 43% 30.01 in 10.0 mi Calm Calm - N/A   Clear
7:36 PM 44.6 °F - 23.0 °F 43% 30.01 in 10.0 mi Calm Calm - N/A   Clear
8:16 PM 44.6 °F - 24.8 °F 46% 30.01 in 10.0 mi Calm Calm - N/A   Clear
8:36 PM 44.6 °F 42.2 °F 26.6 °F 49% 30.00 in 10.0 mi North 4.6 mph - N/A   Clear
8:56 PM 42.8 °F 41.1 °F 26.6 °F 53% 30.00 in 10.0 mi North 3.5 mph - N/A   Clear
9:16 PM 39.2 °F 35.9 °F 28.4 °F 65% 30.00 in 10.0 mi North 4.6 mph - N/A   Clear
9:36 PM 39.2 °F 35.9 °F 30.2 °F 70% 30.00 in 10.0 mi North 4.6 mph - N/A   Clear
9:56 PM 37.4 °F 32.1 °F 26.6 °F 65% 30.00 in 10.0 mi NNW 6.9 mph - N/A   Clear
10:16 PM 33.8 °F 27.7 °F 24.8 °F 70% 30.00 in 10.0 mi NNW 6.9 mph - N/A   Clear
10:36 PM 33.8 °F 27.7 °F 24.8 °F 70% 30.00 in 10.0 mi NNW 6.9 mph - N/A   Clear
10:56 PM 32.0 °F 25.6 °F 24.8 °F 75% 30.00 in 10.0 mi NNW 6.9 mph - N/A   Clear
11:16 PM 30.2 °F 25.4 °F 24.8 °F 80% 30.00 in 10.0 mi NNW 4.6 mph - N/A   Clear
11:36 PM 30.2 °F 25.4 °F 26.6 °F 86% 30.00 in 10.0 mi North 4.6 mph - N/A   Clear
11:56 PM 30.2 °F 26.7 °F 26.6 °F 86% 30.01 in 10.0 mi NNE 3.5 mph - N/A   Clear